Notices

What's New in latest Release from April 7th, 2021:

- Updated Glossary, including Speed of Maximum Gust, and Total Hourly Precipitation

- Updated national and regional climate services offices contacts and prices information

- Addition of station inventory lists for 1981-2010, 1971-2000, and 1961-1990 Normals.

If you haven't already, please take our survey and provide feedback about our website: https://eccc.sondage-survey.ca/f/LanguageSelection.aspx?s=442ca660-fcf1-47c0-95a9-59707d6fd709

Hourly Data Report for December 03, 2020

CARBERRY CS
MANITOBA
Current Station Operator: ECCC - MSC

49°54'20.900" N
99°21'26.800" W
383.50 m
5010547
71170
WZE

Download Data

Hourly Data (December 2020)
Hourly Data Report for December 3, 2020
TIME
LST
Temp Definition
°C
Dew Point Definition
°C
Rel Hum Definition
%
Precip. Amount Definition
mm

Wind Dir Definition
10's deg

Wind Spd Definition
km/h
Visibility Definition
km
Stn Press Definition
kPa
Hmdx Definition


Wind Chill Definition


Weather Definition


00:00 -3.7 -8.3 71 0.0 26 17   97.41   -9 LegendNANA
01:00 -3.6 -8.2 71 0.0 26 17   97.35   -9 LegendNANA
02:00 -3.8 -8.1 72 0.0 25 19   97.28   -10 LegendNANA
03:00 -4.3 -8.1 74 0.0 26 24   97.20   -11 LegendNANA
04:00 -4.4 -8.1 76 0.0 26 24   97.13   -11 LegendNANA
05:00 -4.2 -8.0 74 0.0 26 24   97.08   -11 LegendNANA
06:00 -4.8 -8.0 78 0.0 26 17   97.11   -11 LegendNANA
07:00 -4.0 -7.6 76 0.0 26 22   97.07   -11 LegendNANA
08:00 -4.6 -7.7 79 0.0 27 19   97.05   -11 LegendNANA
09:00 -3.3 -7.1 75 0.0 27 28   96.99   -11 LegendNANA
10:00 -2.2 -6.6 71 0.0 27 23   97.00   -8 LegendNANA
11:00 -0.5 -6.2 65 0.0 27 18   96.99   -6 LegendNANA
12:00 1.2 -5.8 60 0.0 27 15   96.94     LegendNANA
13:00 2.9 -5.1 56 0.0 27 11   96.92     LegendNANA
14:00 3.6 -4.9 54 0.0 25 13   96.84     LegendNANA
15:00 4.4 -4.5 52 0.0 26 17   96.79     LegendNANA
16:00 3.3 -4.4 57 0.0 27 17   96.80     LegendNANA
17:00 -0.4 -5.9 67 0.0 26 13   96.78   -5 LegendNANA
18:00 -0.4 -4.8 72 0.0 26 9   96.79   -4 LegendNANA
19:00 -2.7 -5.2 83 0.0 26 10   96.75   -7 LegendNANA
20:00 -2.4 -5.1 82 0.0 25 10   96.71   -6 LegendNANA
21:00 -2.8 -4.9 85 0.0 24 9   96.72   -6 LegendNANA
22:00 -3.9 -6.4 83 0.0 25 9   96.70   -8 LegendNANA
23:00 -4.3 -5.8 89 0.0 27 14   96.70   -9 LegendNANA

Notes on Data Quality.

Legend

  • E = Estimated
  • M = Missing
  • NA = Not Available*
  • [empty] = Indicates an unobserved value
Date modified: